"Pseudo-MPEC" for C8RJW32

Created 2023 Feb 3 23:22:04 UT using Find_Orb

Click here for an explanation of pseudo-MPECs

 
 Astrometry: 
     C8RJW32*1C2022 12 26.36827208 13 17.702+12 38 15.29   ~CQ9b 20.74GVNEOCPG96
     C8RJW32 1C2022 12 26.37344108 13 15.636+12 38 22.16   ~CQ9b 21.43GVNEOCPG96
     C8RJW32 1C2022 12 26.37860308 13 13.541+12 38 28.82   ~CQ9b       VNEOCPG96
     C8RJW32 1C2022 12 26.38376808 13 11.482+12 38 36.06   ~CQ9b 21.75GVNEOCPG96
     C8RJW32 KC2022 12 26.45657408 12 42.100+12 40 12.30   ~CQBb       VNEOCPI52
     C8RJW32 KC2022 12 26.46184108 12 40.010+12 40 19.90   ~CQBb       VNEOCPI52
     C8RJW32 1C2022 12 27.05193 08 08 41.49 +12 53 30.3    ~CR5q 21.6 VXNEOCP033
     C8RJW32 1C2022 12 27.05454 08 08 40.40 +12 53 33.9    ~CR5q 21.4 VXNEOCP033
     C8RJW32 1C2022 12 27.05714 08 08 39.34 +12 53 37.2    ~CR5q 21.6 VXNEOCP033
     C8RJW32 1C2022 12 28.03811 08 01 51.95 +13 15 38.8    ~CS8b 21.6 VXNEOCP033
     C8RJW32 1C2022 12 28.04060 08 01 50.90 +13 15 42.3    ~CS8b 21.4 VXNEOCP033
     C8RJW32 1C2022 12 30.04793 07 47 17.98 +14 00 42.4    ~CU7q 21.2 VXNEOCP033
     C8RJW32 1C2022 12 30.05007 07 47 17.00 +14 00 45.9    ~CU7q 21.4 VXNEOCP033
     C8RJW32 1C2022 12 30.05220 07 47 16.09 +14 00 48.5    ~CU7q 20.8 VXNEOCP033
     C8RJW32 1C2023 01 021'KDJciI.iH9uV#CLD$UQE!jD*%V8aAstrometryI$htl7l;F5=9T12
     C8RJW32 1C2023 01 02es.y:f.F1/6U9oe,V40xcfDX_HWn3*0A^%-lKsV;No0:UA(?sk,lT12
     C8RJW32 1C2023 01 03.95982 07 08 39.69 +15 44 39.7    ~14J7 20.4 VXNEOCP033
     C8RJW32 1C2023 01 03.96225 07 08 38.53 +15 44 42.2    ~14J7 20.2 VXNEOCP033
     C8RJW32 1C2023 01 03.96533 07 08 37.01 +15 44 46.3    ~14J7 19.6 VXNEOCP033
     C8RJW32 KC2023 01 09.28229706 24 23.720+17 13 41.60   ~197b 20.64GVNEOCPI52
     C8RJW32 KC2023 01 09.28432506 24 22.640+17 13 43.40   ~197b 21.77GVNEOCPI52
     C8RJW32 KC2023 01 09.28635706 24 21.690+17 13 45.30   ~197b 20.93GVNEOCPI52
     C8RJW32*KC2023 01 09WFfredacted;4:S?%tW^\clickIcU%$]Ohw^cZ$]KdUq(2IG2@7Q587
     C8RJW32 KC2023 01 09wu3^BZ%/here_WG7K_forin4r'Ru(dwHVNyQ;yj7Y`qBENjH?oa[587
     C8RJW32 KC2023 01 09_VI17!,?@]Avft''MK?a26)WMY7wuL\QvGhQ-aqj(GV)^OTW6fGt587
     C8RJW32 KC2023 01 10.21149306 16 42.700+17 25 42.70   ~1A5q 20.64GVNEOCPI52
     C8RJW32 KC2023 01 10.21327206 16 41.820+17 25 44.70   ~1A5q 21.82GVNEOCPI52
     C8RJW32 KC2023 01 10.21505006 16 40.950+17 25 45.30   ~1A5q       VNEOCPI52
     C8RJW32 1C2023 01 11.91718 06 02 47.93 +17 44 48.9    ~1BMb 20.7 VXNEOCP033
     C8RJW32 1C2023 01 11.91879 06 02 47.20 +17 44 50.3    ~1BMb 20.9 VXNEOCP033
     C8RJW32 1C2023 01 11.92041 06 02 46.38 +17 44 51.0    ~1BMb 21.0 VXNEOCP033
     C8RJW32 KC2023 01 12.37991705 59 04.720+17 49 23.80   ~1C9q       VNEOCPI52
     C8RJW32 KC2023 01 12.38161805 59 03.820+17 49 24.50   ~1C9q 20.51GVNEOCPI52
     C8RJW32 KC2023 01 12.38331805 59 03.000+17 49 25.50   ~1C9q       VNEOCPI52
     C8RJW32 KC2023 01 13.39351 05 51 02.58 +17 58 22.1    ~1DB7 21.7 GVNEOCP291
     C8RJW32 KC2023 01 13.39994 05 50 59.55 +17 58 25.3    ~1DB7 22.1 GVNEOCP291
     C8RJW32 KC2023 01 13.40640 05 50 56.52 +17 58 28.6    ~1DB7       VNEOCP291
     C8RJW32 1C2023 01 14x?!WVxR\4]X5%0Bf[3H]i$f'.@8xa_L_$Np4#qo`)*@mM`)`/f)gQ62
     C8RJW32 1C2023 01 14ReuL#N3=Lu(C0/[$`d.ZX5Aau*'Yq3DG_explanationGuMuy:XvQ62
     C8RJW32 1C2023 01 18.88334 05 10 48.31 +18 26 18.9    ~1IM7 21.9 VXNEOCP033
     C8RJW32 1C2023 01 18.88605 05 10 47.25 +18 26 18.0    ~1IM7 21.1 VXNEOCP033
     C8RJW32 1C2023 01 18.88899 05 10 46.10 +18 26 19.1    ~1IM7 21.5 VXNEOCP033
     C8RJW32 1C2023 01 20.81490 04 58 12.60 +18 29 18.1    ~1KKq 20.6 VXNEOCP033
     C8RJW32 1C2023 01 20.81779 04 58 11.52 +18 29 17.5    ~1KKq 20.7 VXNEOCP033
     C8RJW32 1C2023 01 20.82068 04 58 10.44 +18 29 17.7    ~1KKq 20.9 VXNEOCP033
     C8RJW32 1C2023 01 20.82363 04 58 09.36 +18 29 18.3    ~1KKq 20.8 VXNEOCP033

Station data:
(033) Karl Schwarzschild Observatory, Tautenburg  (N50.980137 E11.711240)
   Germany.  Observers S. Melnikov, C. Hoegner, B. Stecklum. Measurer B.
   Stecklum. 1.34-m f/3 Schmidt + CCD.
(291) LPL/Spacewatch II  (N31.961669 W111.599905)  US/Arizona.  Observers J.
   V. Scotti, R. S. McMillan. 1.8-m f/2.7 reflector + CCD.
(587) Sormano  (N45.882946 E9.229180)  Italy.  Observers E. Colzani, E. Valli.
    Measurer P. Sicoli. 0.5-m f/6.8 reflector + CCD.
(G96) Mt. Lemmon Survey  (N32.442751 W110.788720)  US/Arizona.  Observers T.
   A. Pruyne, B. M. Africano, E. J. Christensen, G. A. Farneth, D. C. Fuls,
   A. R. Gibbs, A. D. Grauer, H. Gröller, J. A. Johnson, R. A. Kowalski, S.
   M. Larson, G. J. Leonard, D. Rankin, R. L. Seaman, F. C. Shelly, K. W.
   Wierzchoś. 1.5-m reflector + 10K CCD.
(I52) Steward Observatory, Mt. Lemmon Station  (N32.442544 W110.788920)
   US/Arizona.  Observers T. A. Pruyne, B. M. Africano, E. J. Christensen, G.
   A. Farneth, D. C. Fuls, A. R. Gibbs, A. D. Grauer, H. Gröller, J. A.
   Johnson, R. A. Kowalski, S. M. Larson, G. J. Leonard, D. Rankin, R. L.
   Seaman, F. C. Shelly, K. W. Wierzchoś. 1.0-m reflector + CCD.
(Q62) iTelescope Observatory, Siding Spring  (S31.273286 E149.064420)
   Australia/NSW.  Observer H. Sato. 0.51-m f/6.8 astrograph + CCD + f/4.5
   focal reducer0.43-m f/6.8 astrograph + CCD + focal reducer0.43-m f/6.8
   astrograph + CCD0.10-m f/5 astrograph + CCD0.127-m f/5.6 refractor +
   CCD0.50-m f/6.8 reflector + CCD0.30-m f/9 reflector + CCD.
(T12) Mauna Kea-UH/Tholen NEO Follow-Up (2.24-m)  (N19.822991 W155.469434)
   US/Hawaii.  Observers D. Fohring, D. Hung, Y. Ramanjooloo, Z. Claytor, D.
   J. Tholen. 2.24-m f/10.1 University of Hawaii reflector.

Orbital elements:  C8RJW32
   Perihelion 2023 Feb 7.44923 +/- 0.0598 TT = 10:46:53 (JD 2459982.94923)
Epoch 2023 Jan 20.0 TT = JDT 2459964.5   Earth MOID: 0.9225   Ju: 0.6566
M 359.32670661 +/- 0.010            Sa: 0.8628                   AutoNEOCP
n   0.03649439 +/- 0.000451         Peri.  349.69656 +/- 0.032
a   9.00157755 +/- 0.0742           Node    77.60967 +/- 0.007
e   0.7882692 +/- 0.00171           Incl.  172.74871 +/- 0.0011
P  27.01                   H 18.98  G  0.15   U  7.6
q 1.90591102 +/- 0.000266    Q 16.0972440 +/- 0.148       (J2000 ecliptic)
From 46 observations 2022 Dec. 26-2023 Jan. 20; mean residual 0".43
Residuals in arcseconds: 
221226 G96  .16+  .32+    230103 033  .27-  .12+    230112 I52  .00   .20+    
221226 G96  .35+  .27+    230103 033  .32+  .23-    230112 I52  .01-  .24+    
221226 G96  .08+  .02+    230103 033  .35+  .26+    230113 291  .07-  .06-    
221226 G96  .36+  .34+    230109 I52  .36+  .24-    230113 291  .08+  .04+    
221226 I52  .42-  .76-    230109 I52  .54-  .08-    230113 291  .41+  .24+    
221226 I52  .07+  .19-    230109 I52  .45+  .17+    230114 Q62  .14+  .04-    
221227 033  .13-  .27+    230109 587  1.3-  .92+    230114 Q62  .56+  .15-    
221227 033  .38-  .36+    230109 587  1.0-  .77+    230118 033  .33-  .42+    
221227 033  .26-  .16+    230109 587  1.1-  .76+    230118 033  .29+  .86-    
221228 033  .14-  .23-    230110 I52  .34-  .62-    230118 033  .95+  .16-    
221228 033  .04-  .09-    230110 I52  .27-  .05+    230120 033  .71-  .31+    
221230 033  .34-  .28-    230110 I52  .06-  .67-    230120 033  .46-  .44-    
221230 033  .60-  .36+    230111 033  .34-  .28-    230120 033  .20-  .38-    
221230 033  .09+  .12+    230111 033  .42+  .15+    230120 033  .37+  .07+    
230102 T12  .04+  .05-    230111 033  .05-  .13-    
230102 T12  .04+  .01-    230112 I52  1.1+  .45+    

Ephemerides (geocentric):
Date (UTC) HH   RA             Dec           delta  r     elong  mag " sig PA
---- --------  ------------   ------------  ------ ------ -----  --- --------
2023 02 03 23  03 51 30.672   +18 03 07.86  1.3954 1.9063 105.1 22.5 1.37  73
2023 02 04 00  03 51 22.354   +18 03 00.78  1.3965 1.9063 105.0 22.5 1.37  73
2023 02 04 01  03 51 14.054   +18 02 53.70  1.3975 1.9063 104.9 22.5 1.38  73
2023 02 04 02  03 51 05.770   +18 02 46.62  1.3985 1.9063 104.8 22.5 1.38  73
2023 02 04 03  03 50 57.503   +18 02 39.55  1.3996 1.9063 104.8 22.5 1.39  73
2023 02 04 04  03 50 49.253   +18 02 32.48  1.4006 1.9063 104.7 22.5 1.39  73
2023 02 04 05  03 50 41.020   +18 02 25.42  1.4016 1.9062 104.6 22.5 1.40  73
2023 02 04 06  03 50 32.803   +18 02 18.35  1.4027 1.9062 104.5 22.5 1.40  73
2023 02 04 07  03 50 24.604   +18 02 11.29  1.4037 1.9062 104.5 22.5 1.41  73
2023 02 04 08  03 50 16.421   +18 02 04.23  1.4048 1.9062 104.4 22.5 1.41  73
2023 02 04 09  03 50 08.255   +18 01 57.18  1.4058 1.9062 104.3 22.5 1.41  73
2023 02 04 10  03 50 00.105   +18 01 50.13  1.4068 1.9062 104.3 22.5 1.42  73
2023 02 04 11  03 49 51.972   +18 01 43.08  1.4079 1.9062 104.2 22.5 1.42  73
2023 02 04 12  03 49 43.856   +18 01 36.04  1.4089 1.9062 104.1 22.5 1.43  73
2023 02 04 13  03 49 35.756   +18 01 29.00  1.4099 1.9062 104.0 22.5 1.43  73
2023 02 04 14  03 49 27.672   +18 01 21.96  1.4110 1.9062 104.0 22.5 1.44  73
2023 02 04 15  03 49 19.605   +18 01 14.93  1.4120 1.9062 103.9 22.5 1.44  73
2023 02 04 16  03 49 11.555   +18 01 07.90  1.4131 1.9062 103.8 22.5 1.45  73
2023 02 04 17  03 49 03.521   +18 01 00.87  1.4141 1.9062 103.7 22.5 1.45  73
2023 02 04 18  03 48 55.503   +18 00 53.85  1.4152 1.9061 103.7 22.5 1.46  73
2023 02 04 19  03 48 47.502   +18 00 46.84  1.4162 1.9061 103.6 22.5 1.46  73
2023 02 04 20  03 48 39.517   +18 00 39.82  1.4172 1.9061 103.5 22.5 1.46  73
2023 02 04 21  03 48 31.549   +18 00 32.82  1.4183 1.9061 103.4 22.5 1.47  73
2023 02 04 22  03 48 23.596   +18 00 25.81  1.4193 1.9061 103.4 22.5 1.47  73
2023 02 04 23  03 48 15.660   +18 00 18.81  1.4204 1.9061 103.3 22.5 1.48  73
2023 02 05 00  03 48 07.741   +18 00 11.82  1.4214 1.9061 103.2 22.5 1.48  73
2023 02 05 01  03 47 59.837   +18 00 04.82  1.4225 1.9061 103.1 22.5 1.49  73
2023 02 05 02  03 47 51.949   +17 59 57.84  1.4235 1.9061 103.1 22.5 1.49  73
2023 02 05 03  03 47 44.078   +17 59 50.86  1.4246 1.9061 103.0 22.5 1.50  73
2023 02 05 04  03 47 36.223   +17 59 43.88  1.4256 1.9061 102.9 22.5 1.50  73
2023 02 05 05  03 47 28.384   +17 59 36.91  1.4267 1.9061 102.9 22.5 1.50  73
2023 02 05 06  03 47 20.561   +17 59 29.94  1.4277 1.9061 102.8 22.5 1.51  73
2023 02 05 07  03 47 12.753   +17 59 22.98  1.4288 1.9061 102.7 22.5 1.51  73
2023 02 05 08  03 47 04.962   +17 59 16.02  1.4298 1.9061 102.6 22.5 1.52  73
2023 02 05 09  03 46 57.187   +17 59 09.07  1.4308 1.9060 102.6 22.5 1.52  73
2023 02 05 10  03 46 49.428   +17 59 02.12  1.4319 1.9060 102.5 22.5 1.53  73
2023 02 05 11  03 46 41.684   +17 58 55.18  1.4329 1.9060 102.4 22.5 1.53  73
2023 02 05 12  03 46 33.957   +17 58 48.25  1.4340 1.9060 102.3 22.5 1.54  73
2023 02 05 13  03 46 26.245   +17 58 41.32  1.4350 1.9060 102.3 22.5 1.54  73
2023 02 05 14  03 46 18.549   +17 58 34.39  1.4361 1.9060 102.2 22.5 1.55  73
2023 02 05 15  03 46 10.869   +17 58 27.47  1.4372 1.9060 102.1 22.5 1.55  73
2023 02 05 16  03 46 03.204   +17 58 20.56  1.4382 1.9060 102.1 22.5 1.55  73
2023 02 05 17  03 45 55.555   +17 58 13.65  1.4393 1.9060 102.0 22.5 1.56  73
2023 02 05 18  03 45 47.922   +17 58 06.75  1.4403 1.9060 101.9 22.5 1.56  73
2023 02 05 19  03 45 40.305   +17 57 59.85  1.4414 1.9060 101.8 22.5 1.57  73
2023 02 05 20  03 45 32.703   +17 57 52.96  1.4424 1.9060 101.8 22.5 1.57  73
2023 02 05 21  03 45 25.117   +17 57 46.07  1.4435 1.9060 101.7 22.5 1.58  73
2023 02 05 22  03 45 17.546   +17 57 39.19  1.4445 1.9060 101.6 22.5 1.58  73